Vertical_Velocity
-4 -3 -2 1 -1 0 2 1 0 1 -4 1 -1 4 4 3 2 -1 1 11 0 3 -0 -1 0 2 9 4 0 -1 -2 2
-2 -2 -1 -2 -4 -5 -4 -1 -1 -5 -2 -1 -1 1 7 3 6 2 -4 -5 18 -4 -0 2 0 12 -6 9 4 -1 -5 -2
-3 -4 -4 -2 0 2 -1 -1 -3 0 -2 -2 -1 -1 2 5 2 5 2 -2 0 15 -0 3 -3 6 9 3 6 -0 5 -6
-6 -5 -4 -3 -4 -3 -1 0 -2 -3 -3 -4 -4 -1 -5 -4 10 -1 5 -5 2 3 9 6 5 -2 10 -12 13 10 -9 -5
-4 -4 -3 -3 -4 -5 -4 -3 -3 -2 -4 -3 -3 -6 -8 -10 6 -3 -5 8 0 3 2 6 2 4 1 -0 4 11 1 -13
-4 -6 -6 -4 -0 -1 -2 -5 -3 -3 -1 -1 -6 -4 -3 -2 -3 14 -17 11 -1 -1 3 10 3 7 -4 8 -6 6 2 5
-4 -3 -2 -3 -3 -3 -2 -3 -2 1 -3 -4 -2 -3 -2 -0 -2 -6 -36 3 6 -1 8 -1 6 5 7 -2 -2 3 8 -5
-1 -4 -5 -3 -2 -3 -3 -2 0 0 -0 -5 -2 -3 -5 -1 -4 -5 4 14 15 -2 1 9 1 4 3 -5 3 3 7 0
-3 -1 1 -7 -4 -2 -3 -2 -0 -1 -2 -2 -3 -3 -4 -2 -3 -1 -3 -6 3 -12 9 2 5 8 0 4 9 -4 3 5
-4 -5 -2 -1 -4 -5 -3 0 -1 -2 -4 -3 -2 -2 -1 -3 -1 -2 -4 8 12 1 -6 -3 -8 5 4 1 -3 3 3 4
-5 -6 -8 -4 -1 -1 -4 -3 -3 -1 -0 -4 -4 0 -2 -3 -3 0 1 -1 -3 2 -15 -7 -8 45 20 6 2 -5 6 -1
-3 -1 -5 -4 -2 -2 -1 -3 -1 -1 1 -3 -2 -1 -2 -4 1 -3 -2 -4 -1 1 -2 -1 -19 -1 -5 -0 5 0 14 -6
-2 -3 -4 -2 -7 -8 -4 -4 -4 -3 -1 -1 -2 -1 -1 -4 -0 -4 -2 -1 -3 2 3 1 7 -22 9 6 4 -10 6 1
-2 -1 -2 -3 -4 -3 -5 -3 -5 -2 -3 -1 1 -3 -3 -5 -3 -1 -1 -4 -4 -3 -5 -14 -17 21 -22 19 3 -3 -7 -4
-2 -2 -2 -3 -3 -0 -1 -0 -1 -5 -4 -1 1 1 -3 -2 -2 -1 -0 3 -4 -2 -2 -4 -0 -4 -10 16 11 2 0 1
4 1 -1 -1 -3 -4 -3 -1 -2 -0 -6 -4 -1 1 -1 -2 -1 -1 0 2 -0 -2 -2 -0 -1 -3 8 5 10 -0 13 -0
2 -0 -0 -1 -2 1 -0 -2 -0 0 -2 -4 -2 -2 -4 -2 -3 1 -0 0 -0 -0 -4 -2 -1 1 -4 6 -8 -3 -0 1
-0 -1 -1 -0 -1 2 -2 -1 -1 -4 -4 -5 -5 -2 -3 -2 1 2 1 0 2 -0 -1 -4 -3 -3 1 -2 1 -1 8 -0
0 -0 -1 -0 1 -1 -1 -0 1 -2 -1 -2 -5 -4 -4 -2 1 -2 -0 2 1 2 -1 -1 -2 -2 -1 -3 -4 1 0 7
1 -2 -1 0 -2 -2 -0 -3 -1 0 -1 2 -1 -1 -1 -0 2 -2 1 1 1 -3 0 -1 -1 3 2 -2 -4 -3 7 -5
Height
1575 1570 1564 1559 1553 1548 1544 1539 1535 1531 1529 1527 1527 1525 1524 1523 1524 1525 1525 1529 1528 1530 1532 1533 1534 1538 1540 1540 1542 1545 1546 1548
1575 1570 1566 1560 1554 1549 1545 1541 1536 1531 1527 1525 1523 1521 1520 1520 1519 1520 1520 1519 1524 1526 1529 1531 1530 1534 1537 1539 1541 1543 1544 1546
1576 1572 1567 1562 1556 1551 1545 1541 1537 1532 1528 1525 1521 1518 1515 1515 1515 1514 1515 1517 1516 1520 1525 1527 1528 1530 1534 1535 1537 1540 1543 1543
1579 1574 1568 1563 1558 1553 1547 1542 1536 1532 1527 1524 1521 1517 1514 1510 1510 1508 1510 1513 1514 1513 1519 1523 1525 1526 1529 1531 1535 1537 1539 1538
1580 1575 1570 1565 1559 1554 1549 1543 1538 1533 1528 1524 1519 1515 1510 1506 1503 1503 1504 1507 1508 1510 1511 1516 1520 1522 1523 1527 1531 1534 1537 1540
1583 1578 1572 1567 1562 1555 1551 1544 1540 1534 1529 1523 1518 1513 1508 1502 1499 1496 1498 1501 1501 1503 1506 1508 1513 1517 1519 1521 1525 1529 1532 1536
1584 1579 1573 1569 1563 1557 1552 1546 1542 1536 1530 1525 1518 1513 1508 1502 1498 1489 1498 1495 1494 1497 1498 1502 1505 1511 1513 1515 1518 1523 1528 1530
1585 1580 1575 1570 1564 1559 1553 1547 1543 1536 1532 1525 1519 1513 1508 1504 1498 1497 1494 1487 1487 1491 1489 1492 1496 1501 1505 1509 1513 1516 1522 1525
1585 1580 1575 1570 1564 1559 1553 1549 1543 1537 1532 1526 1520 1514 1508 1504 1499 1494 1488 1486 1487 1479 1478 1488 1488 1492 1497 1503 1507 1511 1516 1521
1587 1582 1577 1570 1564 1560 1554 1549 1543 1538 1531 1526 1519 1514 1509 1502 1498 1494 1487 1482 1480 1477 1471 1481 1478 1484 1487 1494 1499 1505 1510 1516
1586 1581 1577 1570 1565 1559 1554 1549 1543 1538 1531 1525 1518 1512 1508 1502 1497 1492 1486 1480 1476 1475 1481 1469 1468 1467 1481 1488 1490 1498 1504 1511
1587 1581 1576 1570 1564 1558 1552 1547 1542 1537 1531 1524 1517 1511 1506 1502 1498 1492 1486 1478 1474 1474 1471 1467 1468 1464 1473 1478 1489 1491 1496 1501
1586 1580 1575 1569 1562 1556 1550 1544 1540 1536 1530 1523 1517 1511 1505 1501 1497 1492 1487 1480 1474 1469 1466 1464 1464 1467 1472 1476 1476 1488 1491 1495
1585 1580 1575 1569 1563 1557 1551 1545 1540 1535 1529 1523 1516 1509 1503 1500 1495 1492 1488 1482 1476 1470 1466 1466 1465 1466 1462 1468 1473 1482 1486 1492
1585 1579 1574 1570 1564 1558 1551 1544 1539 1533 1527 1521 1514 1508 1504 1500 1495 1492 1489 1484 1478 1474 1470 1467 1461 1460 1460 1463 1470 1474 1479 1486
1585 1580 1575 1570 1564 1557 1550 1544 1538 1534 1528 1521 1513 1507 1503 1500 1496 1492 1489 1485 1480 1474 1470 1466 1463 1460 1458 1464 1466 1467 1474 1479
1584 1579 1574 1569 1563 1557 1550 1544 1540 1534 1528 1521 1513 1508 1504 1501 1497 1492 1489 1486 1482 1476 1471 1466 1462 1459 1458 1456 1460 1462 1466 1470
1583 1578 1573 1568 1561 1555 1549 1544 1538 1533 1527 1520 1514 1508 1504 1501 1497 1493 1489 1485 1482 1477 1472 1467 1463 1459 1457 1457 1460 1460 1460 1462
1582 1577 1572 1566 1560 1554 1549 1544 1538 1533 1528 1522 1516 1510 1505 1502 1497 1493 1489 1485 1481 1477 1472 1467 1462 1460 1457 1457 1458 1458 1458 1460
1580 1575 1570 1565 1559 1554 1549 1543 1538 1533 1529 1523 1517 1512 1506 1502 1498 1494 1489 1485 1480 1475 1470 1464 1460 1457 1456 1455 1452 1455 1457 1458